CZ-4C DEB, 43338

Orbit data source: Space-Track

CZ-4C DEB, 43338 is space debris in LEO originally from a launch on Tue, 10 Apr 2018 UTC launched from the Jiuquan Satellite Launch Center, China (JSC). Debris objects in space refer to the collection of defunct objects orbiting the Earth. Examples of debris include non-operational satellites, rocket bodies, and fragments generated from explosions, collisions, or faulty payload assembly.

Loading next visibility...
Identifier
43338, 2018-034H
Orbit
LEO
Country
Flag of CNCN / PRC
Related business
Manufacturer
Unknown
Mission
Spacecraft
Bus & Motor
Unknown
Mass
Unknown
Launch date (UTC)
2018-04-10 (8 years ago)
Launch vehicle
Unknown
Launch site
Jiuquan Satellite Launch Center, China (JSC)
Object type
Payload
Rocket body
Debris
Shape & HBR
Unknown shape, 0.1 m
Radar Cross Section
Small (<0.1 m²)

Expand to show TLE details & history
Last TLE update: 8 hours ago

TLE from 8 hours ago
0 CZ-4C DEB
1 43338U 18034H   26126.95962895 -.00000058  00000-0  43837-4 0  9990
2 43338  63.3942 205.7110 0271351   8.1276 352.4015 13.44721535396316
Epoch: 2026-05-06T23:01Z
TLE epoch observation values (Epoch: 2026-05-06T23:01:51.941Z)
Latitude
0.00004°
Longitude
-4.56804°
Altitude
892.674 km
Speed
7.505 km/s
True Right ascension
13h 42m 50s
True Declination
0° 00' 00"
Sunlit
Object was in full shadow at epoch
Visualization orbit readout
Latitude
Unknown
Longitude
Unknown
Altitude
Unknown
Speed
Unknown
Apparent Right ascension
Unknown
Apparent Declination
Unknown
Sunlit
N/A
Visualization observer readout
Local Sidereal Time
14:40:40
Azimuth
Unknown
Elevation
Unknown
Doppler factor
Unknown
Orbital elements
Apogee altitude
1,293.236 km
Perigee altitude
887.908 km
Semi-major axis
7,468.709 km
Eccentricity
0.02714
Inclination
63.3942°
RAAN
205.711°
Arg. of periapsis
8.1276°
True anomaly
351.97606°
Mean anomaly
352.4015°
Eccentric anomaly
352.19024°
Mean motion
3.3626 °/min
Orbital period
107.06 mins
BSTAR
0.000043837
Loading maneuver chart data...
Computing Atmospheric mass density...
Loading historical data...
Loading historical data...
Loading historical data...
Loading historical data...
Loading historical data...
Loading historical data...
Loading historical data...

Documentation

Showing up to 5 results
|